Вернуться в каталог

BREEZE-M DEB

АктивенHEO
NORAD 34244·DEBRIS·🇷🇺 Russia

Запущен Feb 28, 2006 с Baikonur Cosmodrome

Loading…

Ближайшие Пролёты (ближайшие 24 часа)

TLE

СвежийSource: Space-Track

Эпоха: Sep 11, 2026, 01:51 UTC

1 34244U 06006BK  26254.07761661  .00001719  00000-0  31645-2 0  9991
2 34244  51.9950 160.3198 4737451 187.3971 161.9796  5.77327223 50588

Отслеживайте BREEZE-M DEB в реальном времени с AllMySat

Download on the App Store